Tracking 31027 objects as of 19-Jul-2025
HD Live streaming from Space Station
objects crossing your sky now

STARLINK-4252

Track STARLINK-4252 now!
10-day predictions
STARLINK-4252 is classified as:


NORAD ID: 53057
Int'l Code: 2022-077Q
Perigee: 567.5 km
Apogee: 572.8 km
Inclination: 97.7 °
Period: 95.9 minutes
Semi major axis: 6941 km
RCS: Unknown
Launch date: July 11, 2022
Source: United States (US)
Launch site: AIR FORCE WESTERN TEST RANGE (AFWTR)
Your satellite tracking list
STARLINK-31611
Track 1 satellite(s)




NASA's NSSDC Master Catalog

Two Line Element Set (TLE):
1 53057U 22077Q   25199.46897025 -.00000276  00000-0 -16866-4 0  9993
2 53057  97.6569  20.6208 0003830 123.8463 236.3126 15.01257898165778
Source of the keplerian elements: AFSPC